Regional Weather Roundup
Issued by NWS

Current Version | Previous Version | Text Only | Print | Product List | Glossary On
Versions: 1 2 3 4 5 6 7 8 9 10 11 12 13 14 15 16 17 18 19 20 21 22 23 24 25 26 27 28 29 30 31 32 33 34 35 36 37 38 39 40 41 42 43 44 45 46 47 48 49 50
000
ASUS44 KJAN 071110
RWRMS

MISSISSIPPI HOURLY WEATHER ROUNDUP
NATIONAL WEATHER SERVICE JACKSON MS
500 AM CST WED DEC 07 2016

NOTE: "FAIR: INDICATES FEW OR NO CLOUDS BELOW 12,000 FEET WITH NO
SIGNIFICANT WEATHER AND/OR OBSTRUCTIONS TO VISIBILITY.

MSZ001>002-007>008-010>013-018>021-025>028-034>036-071200-
NORTHWEST MISSISSIPPI

CITY           SKY/WX    TMP DP  RH WIND       PRES   REMARKS
CLEVELAND      CLOUDY    44  44 100 NE9       30.10S
GREENWOOD      CLOUDY    44  40  85 N6        30.11R
GREENVILLE     CLOUDY    44  40  85 NE9       30.09S
OXFORD         MOCLDY    39  37  93 NE5       30.13S
WINONA         CLOUDY    43  40  90 NE7       30.09R
$$

MSZ003>006-009-014>017-022>024-029>033-037>039-071200-
NORTHEAST MISSISSIPPI

CITY           SKY/WX    TMP DP  RH WIND       PRES   REMARKS
COLUMBUS AFB   CLOUDY    46  42  87 N7        30.08R
GOLDN TRIANGLE CLOUDY    46  39  76 N6        30.04R
STARKVILLE     CLOUDY    43  41  93 CALM      30.10R
TUPELO         CLOUDY    43  38  82 N12       30.10R
$$

MSZ040-058-071200-
CENTRAL MISSISSIPPI

CITY           SKY/WX    TMP DP  RH WIND       PRES   REMARKS
JACKSON INTL   CLOUDY    49  47  93 N5        30.06S FOG
JACKSON HAWKNS CLOUDY    48  46  93 CALM      30.07R FOG
MADISON        CLOUDY    45  45 100 CALM      30.07R FOG
MERIDIAN KEY   CLOUDY    49  44  83 NW3       30.07R
MERIDIAN NAS   NOT AVBL
VICKSBURG VKS  CLOUDY    50  46  87 CALM      30.07R
$$

MSZ059>079-071200-
SOUTH MISSISSIPPI

CITY           SKY/WX    TMP DP  RH WIND       PRES   REMARKS
BROOKHAVEN     CLOUDY   N/A N/A N/A CALM      30.07R
COLUMBIA       FOG       46  46 100 CALM      30.08F VSB 1/2
HATTIESBURG    CLOUDY    51  49  92 N3        30.07R
LAUREL         CLOUDY    49  49 100 N3        30.06S
MCCOMB         MOCLDY    48  46  93 N3        30.04S
NATCHEZ        CLOUDY    48  46  93 CALM      30.06S
PINE BELT      CLOUDY    50  45  81 CALM      30.08R
$$

MSZ080>082-071200-
COASTAL MISSISSIPPI

CITY           SKY/WX    TMP DP  RH WIND       PRES   REMARKS
BILOXI         CLOUDY    53  53  99 NE3       30.05R
PASCAGOULA     CLOUDY    53  49  86 NE3       30.05R
GULFPORT       CLOUDY    54  51  90 N5        30.05R
$$

LAZ007>009-015>016-023>026-071200-
NORTHEAST LOUISIANA

CITY           SKY/WX    TMP DP  RH WIND       PRES   REMARKS
BASTROP        CLOUDY    46  46  98 CALM      30.09S
TALLULAH/VBURG CLOUDY    48  45  89 N6        30.08R
VIDALIA        CLOUDY    50  48  93 CALM      30.10S
$$



USA.gov is the U.S. government's official web portal to all federal, state and local government web resources and services.